Temp
-8 -8 -8 -8 -8 -9 -9 -9 -9 -9 -9 -9 -9 -9 -9 -9 -9 -9 -9 -9 -8 -8 -8 -8 -7 -7 -7 -7 -6 -6 -6 -7 -5 -4 -4 -4 -4 -4 -4 -4 -4 -4 -4 -4 -4
-8 -8 -8 -8 -8 -8 -9 -9 -9 -9 -9 -9 -9 -9 -9 -9 -9 -9 -9 -9 -9 -8 -8 -8 -7 -7 -7 -7 -6 -6 -6 -5 -5 -5 -4 -4 -4 -4 -4 -4 -4 -4 -4 -4 -5
-8 -8 -8 -8 -8 -8 -8 -9 -9 -9 -8 -9 -9 -10 -9 -9 -9 -9 -9 -9 -9 -8 -8 -8 -7 -8 -8 -8 -7 -6 -6 -5 -5 -5 -4 -4 -4 -4 -4 -4 -4 -4 -4 -4 -4
-8 -8 -8 -8 -8 -8 -8 -8 -9 -9 -9 -8 -8 -9 -9 -9 -10 -9 -9 -9 -9 -9 -8 -8 -8 -8 -8 -7 -7 -6 -5 -5 -4 -4 -3 -4 -4 -4 -4 -4 -4 -4 -4 -5 -4
-8 -8 -8 -8 -8 -8 -8 -8 -8 -9 -9 -9 -9 -9 -9 -9 -9 -9 -9 -9 -9 -9 -9 -8 -8 -8 -8 -7 -6 -6 -5 -5 -4 -3 -3 -3 -4 -3 -3 -3 -4 -4 -4 -5 -5
-8 -8 -8 -8 -8 -8 -8 -8 -8 -8 -8 -9 -9 -9 -9 -8 -9 -8 -8 -9 -9 -9 -9 -8 -7 -8 -8 -8 -7 -7 -6 -5 -5 -5 -4 -4 -4 -4 -4 -4 -4 -4 -4 -5 -5
-7 -7 -7 -8 -8 -8 -8 -8 -8 -8 -8 -8 -8 -9 -9 -9 -9 -8 -8 -8 -9 -9 -9 -9 -8 -8 -8 -8 -8 -7 -6 -6 -5 -5 -5 -5 -4 -4 -4 -4 -4 -5 -5 -5 -5
-7 -7 -7 -7 -7 -7 -8 -8 -8 -8 -8 -8 -8 -8 -8 -8 -9 -9 -8 -8 -9 -9 -9 -8 -8 -7 -8 -8 -8 -8 -7 -7 -6 -6 -5 -5 -4 -4 -4 -5 -5 -5 -5 -5 -5
-8 -7 -7 -7 -7 -7 -7 -7 -8 -8 -8 -8 -8 -8 -8 -8 -9 -9 -8 -8 -8 -8 -9 -8 -8 -7 -7 -8 -8 -8 -8 -7 -6 -6 -5 -5 -5 -5 -5 -5 -5 -5 -6 -6 -6
-9 -8 -8 -7 -7 -7 -7 -7 -7 -8 -8 -8 -8 -8 -8 -8 -8 -8 -8 -8 -8 -8 -8 -8 -8 -7 -7 -8 -8 -8 -8 -8 -7 -6 -5 -5 -5 -5 -4 -5 -5 -5 -5 -5 -5
-12 -10 -9 -9 -8 -8 -7 -7 -8 -8 -8 -7 -7 -8 -7 -8 -8 -8 -8 -8 -8 -8 -8 -8 -7 -6 -6 -7 -9 -9 -8 -9 -8 -6 -6 -6 -5 -5 -5 -4 -5 -5 -5 -5 -5
-14 -13 -12 -11 -10 -10 -9 -8 -7 -7 -8 -8 -7 -7 -8 -8 -8 -8 -8 -8 -8 -8 -8 -8 -6 -7 -7 -7 -8 -8 -8 -8 -8 -6 -6 -6 -5 -5 -5 -5 -4 -5 -5 -5 -5
-15 -15 -15 -14 -12 -11 -10 -10 -8 -7 -7 -8 -8 -7 -8 -7 -8 -8 -8 -8 -8 -8 -8 -7 -6 -7 -7 -7 -7 -8 -8 -8 -8 -7 -7 -6 -5 -5 -5 -4 -4 -4 -4 -4 -4
-15 -15 -15 -15 -15 -14 -12 -11 -10 -9 -8 -7 -8 -8 -8 -8 -7 -8 -8 -7 -7 -8 -8 -7 -8 -7 -7 -7 -7 -8 -8 -8 -8 -7 -8 -7 -7 -6 -5 -4 -4 -4 -4 -4 -4
-15 -15 -15 -15 -16 -16 -15 -13 -12 -11 -10 -8 -8 -7 -8 -8 -7 -8 -8 -7 -7 -7 -7 -7 -7 -6 -7 -7 -7 -7 -9 -8 -8 -7 -8 -7 -6 -7 -5 -4 -4 -4 -4 -4 -3
-15 -15 -15 -15 -15 -15 -16 -16 -15 -13 -11 -9 -8 -8 -8 -8 -7 -7 -8 -7 -7 -8 -7 -7 -7 -7 -6 -7 -8 -8 -8 -8 -8 -8 -8 -8 -7 -7 -6 -5 -4 -4 -4 -4 -3
-15 -15 -16 -16 -15 -15 -15 -16 -16 -15 -13 -11 -10 -9 -8 -8 -8 -8 -8 -7 -7 -7 -7 -7 -6 -7 -7 -7 -8 -8 -8 -9 -9 -8 -7 -7 -7 -6 -7 -6 -5 -4 -3 -4 -3
-15 -16 -16 -16 -16 -15 -15 -15 -16 -16 -15 -13 -11 -10 -10 -8 -8 -8 -8 -8 -7 -7 -8 -7 -7 -6 -6 -7 -7 -8 -9 -8 -8 -7 -7 -7 -7 -7 -6 -6 -5 -4 -4 -3 -3
-16 -16 -17 -17 -16 -16 -16 -16 -16 -16 -16 -15 -13 -12 -11 -10 -9 -8 -8 -8 -7 -7 -8 -7 -6 -6 -6 -6 -7 -8 -8 -8 -8 -7 -7 -7 -6 -6 -7 -6 -5 -4 -3 -3 -3
-17 -18 -18 -18 -17 -17 -17 -17 -17 -16 -16 -16 -15 -14 -12 -11 -10 -9 -8 -9 -8 -8 -8 -7 -7 -6 -7 -6 -7 -8 -7 -9 -8 -8 -7 -7 -7 -7 -7 -6 -5 -4 -3 -3 -3
-18 -19 -19 -18 -18 -19 -18 -18 -17 -17 -16 -16 -15 -13 -14 -11 -11 -10 -9 -8 -8 -7 -8 -8 -8 -7 -7 -6 -7 -7 -8 -9 -8 -8 -7 -7 -6 -7 -7 -6 -5 -4 -3 -3 -3
-19 -20 -20 -20 -20 -20 -19 -18 -18 -17 -18 -18 -16 -14 -14 -13 -12 -11 -10 -8 -8 -8 -7 -7 -7 -8 -7 -6 -7 -7 -7 -7 -8 -8 -8 -7 -6 -6 -6 -6 -4 -4 -4 -4 -4
-19 -20 -21 -21 -21 -20 -20 -19 -19 -20 -21 -20 -20 -17 -15 -14 -13 -12 -10 -9 -9 -8 -8 -8 -8 -8 -7 -7 -7 -7 -7 -7 -8 -8 -8 -7 -6 -6 -6 -6 -4 -4 -4 -4 -4
-20 -20 -21 -22 -21 -21 -21 -20 -21 -22 -22 -22 -21 -19 -16 -15 -14 -13 -11 -10 -9 -9 -8 -8 -8 -7 -6 -5 -6 -7 -7 -8 -8 -8 -7 -7 -7 -6 -6 -6 -5 -5 -4 -4 -4
-20 -21 -21 -22 -22 -22 -21 -22 -22 -23 -23 -23 -22 -20 -18 -16 -14 -14 -13 -10 -10 -9 -9 -9 -8 -8 -7 -8 -7 -6 -7 -7 -8 -8 -8 -7 -7 -7 -7 -6 -6 -5 -4 -5 -5
-21 -21 -21 -22 -22 -22 -22 -22 -23 -23 -23 -23 -22 -21 -19 -17 -15 -15 -13 -12 -10 -9 -9 -9 -8 -8 -7 -7 -6 -7 -7 -7 -7 -7 -8 -7 -7 -6 -7 -6 -5 -6 -6 -6 -5
-21 -22 -22 -22 -22 -23 -23 -23 -24 -24 -24 -23 -22 -21 -20 -19 -15 -14 -14 -13 -11 -10 -9 -9 -9 -8 -7 -8 -7 -6 -6 -7 -7 -7 -7 -7 -7 -7 -7 -6 -6 -5 -6 -6 -6
Height
5867 5867 5868 5869 5870 5872 5873 5875 5876 5878 5881 5883 5886 5888 5890 5892 5894 5896 5897 5899 5899 5901 5902 5904 5905 5906 5906 5906 5906 5906 5908 5907 5905 5906 5906 5907 5907 5908 5908 5909 5910 5911 5911 5912 5914
5864 5865 5865 5866 5867 5869 5870 5872 5873 5876 5878 5881 5884 5886 5888 5890 5893 5894 5897 5898 5898 5900 5901 5903 5905 5906 5907 5907 5907 5908 5909 5908 5907 5906 5907 5907 5908 5908 5908 5908 5910 5911 5912 5912 5914
5860 5861 5862 5863 5864 5865 5866 5869 5871 5873 5875 5878 5880 5883 5886 5888 5891 5892 5894 5897 5898 5899 5901 5903 5905 5906 5907 5907 5908 5909 5909 5909 5908 5908 5908 5908 5908 5909 5908 5908 5909 5910 5912 5912 5913
5856 5856 5857 5859 5860 5861 5863 5865 5867 5869 5872 5874 5876 5879 5882 5885 5889 5889 5892 5895 5897 5898 5900 5902 5905 5907 5907 5907 5907 5910 5910 5910 5910 5909 5909 5909 5909 5909 5909 5909 5909 5910 5910 5912 5913
5851 5851 5852 5853 5854 5856 5858 5860 5863 5864 5867 5870 5873 5875 5878 5881 5884 5886 5889 5892 5895 5897 5899 5901 5905 5907 5907 5908 5908 5909 5909 5909 5909 5909 5908 5908 5909 5908 5909 5909 5909 5909 5910 5911 5914
5846 5846 5847 5847 5848 5850 5852 5855 5857 5859 5861 5864 5867 5871 5874 5878 5880 5883 5886 5890 5893 5895 5897 5900 5903 5905 5907 5907 5908 5910 5909 5908 5907 5907 5908 5909 5909 5909 5908 5908 5907 5907 5909 5910 5912
5838 5838 5840 5841 5842 5842 5845 5847 5850 5853 5855 5858 5861 5864 5868 5875 5876 5879 5883 5886 5890 5893 5895 5897 5900 5903 5906 5907 5908 5910 5911 5909 5908 5908 5909 5909 5909 5909 5908 5908 5907 5907 5907 5908 5910
5826 5828 5830 5832 5834 5835 5837 5839 5842 5845 5848 5851 5854 5857 5861 5867 5870 5874 5877 5881 5885 5889 5891 5893 5897 5901 5904 5906 5908 5909 5911 5911 5911 5909 5909 5910 5910 5910 5909 5908 5907 5906 5905 5906 5908
5812 5814 5817 5820 5823 5825 5828 5830 5834 5837 5840 5844 5847 5850 5856 5861 5863 5867 5872 5878 5880 5884 5887 5890 5894 5898 5902 5905 5908 5909 5914 5912 5911 5909 5909 5910 5910 5910 5908 5907 5907 5906 5906 5906 5909
5798 5800 5802 5805 5809 5813 5816 5820 5823 5827 5831 5834 5839 5844 5849 5852 5856 5862 5867 5872 5876 5879 5882 5886 5890 5895 5899 5903 5911 5913 5910 5910 5910 5910 5909 5909 5909 5909 5908 5908 5907 5906 5906 5907 5909
5784 5786 5788 5791 5794 5798 5802 5808 5813 5817 5821 5825 5831 5834 5841 5846 5848 5853 5859 5865 5870 5872 5876 5882 5885 5889 5897 5902 5905 5906 5909 5910 5908 5908 5908 5908 5908 5908 5908 5908 5908 5907 5907 5908 5910
5771 5772 5774 5777 5780 5783 5787 5791 5797 5803 5809 5814 5820 5827 5831 5835 5839 5845 5851 5858 5862 5867 5876 5876 5877 5888 5895 5898 5900 5903 5905 5907 5906 5907 5908 5907 5907 5907 5908 5908 5908 5908 5908 5909 5912
5764 5762 5760 5762 5766 5768 5772 5776 5781 5787 5795 5802 5808 5816 5821 5826 5831 5838 5844 5850 5856 5863 5866 5870 5881 5884 5888 5892 5897 5900 5903 5905 5905 5904 5906 5907 5908 5908 5909 5909 5909 5910 5911 5911 5914
5758 5756 5755 5752 5752 5755 5758 5762 5767 5772 5781 5791 5794 5803 5811 5817 5822 5830 5836 5842 5846 5854 5861 5866 5875 5877 5883 5888 5894 5898 5901 5900 5901 5903 5909 5906 5912 5908 5909 5909 5910 5911 5913 5913 5915
5749 5748 5744 5743 5741 5743 5745 5748 5753 5757 5767 5773 5783 5792 5801 5807 5816 5820 5828 5831 5839 5847 5852 5860 5866 5871 5876 5884 5891 5895 5897 5897 5898 5900 5902 5905 5907 5911 5908 5908 5910 5912 5913 5914 5916
5737 5736 5734 5732 5731 5731 5733 5737 5741 5745 5749 5760 5768 5777 5788 5796 5804 5811 5816 5824 5832 5835 5843 5855 5862 5866 5878 5883 5885 5890 5892 5893 5895 5898 5902 5903 5905 5911 5909 5907 5908 5910 5913 5915 5916
5725 5723 5721 5720 5719 5719 5721 5725 5729 5729 5736 5744 5754 5764 5775 5784 5792 5799 5805 5812 5818 5826 5833 5844 5849 5858 5866 5870 5876 5881 5887 5892 5895 5897 5901 5900 5902 5907 5906 5906 5908 5909 5911 5915 5917
5712 5709 5705 5705 5705 5705 5707 5713 5714 5719 5722 5725 5740 5751 5760 5770 5780 5788 5795 5801 5811 5820 5829 5836 5840 5847 5856 5861 5870 5875 5883 5890 5893 5895 5901 5898 5901 5904 5903 5904 5906 5908 5910 5913 5917
5698 5694 5690 5689 5689 5691 5693 5694 5698 5701 5705 5715 5729 5737 5745 5756 5767 5777 5786 5794 5805 5813 5819 5826 5836 5844 5853 5861 5866 5872 5873 5887 5890 5889 5893 5899 5901 5901 5902 5902 5904 5906 5908 5912 5916
5685 5680 5676 5673 5673 5674 5677 5678 5680 5687 5691 5698 5711 5718 5729 5742 5753 5763 5774 5781 5790 5800 5810 5818 5829 5833 5847 5851 5857 5864 5876 5878 5884 5886 5893 5898 5899 5902 5901 5902 5902 5903 5905 5909 5913
5670 5664 5661 5659 5658 5659 5660 5662 5666 5669 5673 5680 5690 5704 5716 5728 5739 5751 5760 5766 5774 5785 5795 5807 5818 5827 5834 5837 5848 5856 5861 5869 5880 5884 5890 5896 5899 5899 5899 5899 5900 5901 5902 5907 5913
5656 5649 5644 5642 5644 5645 5646 5649 5652 5652 5653 5660 5671 5685 5701 5713 5725 5734 5741 5750 5764 5777 5789 5799 5808 5815 5822 5838 5846 5850 5859 5864 5870 5877 5884 5891 5900 5896 5897 5896 5899 5902 5903 5907 5911
5644 5640 5633 5631 5633 5634 5636 5637 5638 5638 5639 5644 5654 5667 5683 5699 5711 5719 5730 5741 5754 5766 5776 5788 5793 5805 5816 5826 5831 5836 5849 5857 5866 5876 5876 5885 5893 5894 5895 5896 5898 5900 5903 5906 5910
5637 5633 5628 5626 5626 5627 5627 5627 5627 5627 5629 5633 5641 5652 5668 5684 5695 5708 5717 5729 5741 5754 5767 5775 5784 5796 5809 5822 5827 5828 5839 5848 5857 5863 5874 5878 5888 5892 5894 5895 5896 5899 5902 5906 5910
5629 5625 5621 5621 5620 5620 5620 5619 5618 5618 5621 5625 5631 5640 5648 5668 5683 5697 5704 5718 5728 5741 5754 5761 5776 5791 5803 5812 5818 5825 5835 5840 5846 5858 5866 5877 5881 5890 5891 5893 5895 5897 5900 5904 5908
5623 5618 5614 5614 5613 5613 5612 5611 5609 5610 5613 5615 5620 5624 5637 5654 5666 5673 5691 5703 5714 5730 5741 5755 5770 5779 5790 5799 5804 5813 5825 5834 5842 5850 5860 5868 5878 5884 5886 5890 5893 5895 5900 5902 5906
5616 5612 5608 5607 5606 5605 5603 5601 5600 5600 5603 5608 5615 5623 5632 5638 5650 5670 5685 5696 5707 5719 5731 5744 5753 5766 5780 5790 5798 5804 5813 5824 5835 5844 5853 5858 5869 5877 5882 5885 5890 5892 5896 5901 5906
Wind_Speed
13 12 14 15 16 19 21 21 21 23 23 24 22 23 23 18 16 14 12 9 10 14 8 9 6 4 2 4 4 5 4 3 6 7 8 9 9 11 11 11 10 8 12 12 14
16 15 14 16 18 20 22 22 24 25 26 25 24 23 20 18 18 17 15 13 12 14 9 9 10 2 2 4 1 3 4 6 8 9 8 9 8 8 8 10 11 12 12 12 11
17 19 19 18 19 22 23 24 24 27 29 28 27 26 25 23 21 21 19 15 13 14 11 10 8 2 4 2 1 1 4 6 8 8 7 6 6 6 7 9 11 14 13 16 16
18 16 21 22 22 21 24 25 26 27 29 32 31 30 28 27 27 24 22 18 15 14 15 13 10 7 4 2 2 5 5 8 7 7 6 5 3 4 5 6 7 10 13 14 16
22 22 21 20 25 25 24 25 27 29 30 32 34 32 31 28 28 27 25 21 18 14 15 15 13 12 7 4 3 6 8 10 10 8 7 5 4 4 5 7 8 9 10 13 13
26 25 25 26 24 25 29 28 27 30 32 33 34 36 34 30 29 28 26 26 22 18 16 17 16 15 8 6 4 7 10 9 6 4 2 1 1 2 4 5 8 10 11 10 16
34 33 31 28 29 29 27 29 31 31 32 35 35 37 39 34 32 30 28 28 26 22 20 21 19 16 12 8 4 4 6 5 6 4 2 3 3 3 4 5 6 6 10 12 17
40 40 39 37 34 33 33 31 30 35 34 34 36 38 37 37 38 33 31 30 31 28 25 25 23 19 16 11 4 3 4 3 3 4 3 4 4 5 4 5 5 5 7 14 20
47 47 45 43 42 41 38 36 35 33 36 37 36 38 36 38 42 39 33 29 33 32 28 27 24 24 19 13 8 5 6 8 7 6 4 5 6 7 4 4 5 4 5 14 18
45 51 52 50 49 47 46 43 40 38 36 36 40 39 36 39 42 42 38 32 32 35 34 29 27 28 25 17 10 11 12 12 14 13 10 8 7 9 7 3 3 5 6 15 19
40 46 50 53 54 53 52 51 48 45 41 40 38 41 37 38 42 44 44 38 35 38 39 32 31 32 25 17 19 17 13 14 14 16 13 10 9 8 10 5 5 6 9 12 16
38 38 41 48 51 53 55 55 55 52 49 45 42 38 40 42 43 45 47 44 41 38 37 38 35 26 22 24 21 14 13 13 17 15 14 12 11 9 10 7 6 8 11 14 18
31 30 35 39 44 48 50 54 57 58 55 51 47 42 41 44 45 44 46 48 44 40 42 40 25 27 29 29 24 18 11 16 17 16 12 13 12 12 11 9 8 9 12 16 16
24 24 27 32 38 39 44 49 54 59 59 56 53 49 45 43 48 46 46 49 51 47 43 40 34 33 30 27 25 21 15 21 25 21 6 15 8 16 14 11 11 9 11 14 14
34 36 37 35 32 31 34 40 47 55 56 61 57 53 48 47 46 48 46 50 52 51 50 43 40 35 33 26 23 19 21 22 22 22 19 14 16 9 15 14 13 12 11 13 15
44 40 38 41 38 37 35 37 35 46 56 56 58 55 53 50 47 48 50 51 50 53 54 47 43 40 25 26 28 24 23 23 19 19 19 14 17 9 13 14 14 13 13 14 19
46 46 42 39 40 39 34 34 35 45 52 57 54 55 53 54 52 49 51 55 56 54 55 52 50 44 40 40 39 36 28 19 16 19 14 22 21 19 13 13 15 16 17 17 21
45 44 44 44 42 41 42 44 38 41 42 54 53 54 51 53 55 53 51 56 54 52 49 52 56 51 44 45 43 38 31 22 21 17 18 22 21 14 17 15 17 19 20 21 24
42 42 42 44 41 39 41 44 45 45 50 48 50 49 55 50 55 56 54 52 52 53 53 52 53 51 44 40 42 40 40 26 20 20 19 18 21 19 14 18 19 20 21 23 25
44 43 39 39 39 37 39 44 47 46 50 53 50 57 51 57 53 55 57 56 54 55 53 53 49 53 47 46 43 43 37 34 29 24 25 19 23 16 13 9 18 16 22 27 29
48 39 36 37 34 35 37 42 43 44 50 53 52 63 57 57 56 54 56 62 60 60 59 54 52 52 52 53 48 46 45 42 28 26 25 22 19 16 14 14 20 18 28 27 26
42 35 29 26 29 30 33 37 37 39 45 46 55 63 63 52 61 56 62 67 62 58 59 56 54 50 53 47 46 46 45 41 34 34 30 25 19 25 18 17 22 20 25 27 26
38 28 24 20 21 23 25 27 30 34 36 42 55 62 67 60 64 60 61 64 62 60 60 58 60 57 52 54 54 53 48 46 37 31 38 29 25 26 19 16 21 23 27 28 25
31 27 21 16 19 18 20 23 28 31 33 36 52 64 67 70 63 61 62 63 64 63 60 62 61 58 57 51 53 57 51 48 44 40 33 39 25 27 23 22 24 24 25 25 23
29 23 20 16 17 19 20 21 27 30 32 32 46 62 67 70 67 61 62 64 64 64 64 66 62 56 55 45 54 54 50 52 49 42 38 35 36 26 24 26 25 25 27 26 23
28 24 17 17 18 19 21 24 25 29 31 34 42 60 67 69 76 69 67 66 67 65 67 63 62 60 58 60 61 59 55 54 51 46 41 38 38 38 31 32 31 23 25 27 26
25 20 18 17 20 20 21 22 23 27 29 33 37 53 59 65 76 73 62 66 66 65 66 67 67 65 60 59 60 64 60 57 54 49 47 46 47 40 35 36 35 32 29 24 24
Wind_Direction
254 245 238 230 223 220 213 211 209 201 198 197 198 202 201 200 194 197 203 201 195 177 181 174 155 154 176 163 172 156 143 174 189 184 185 188 192 183 189 197 194 201 180 183 184
255 254 247 237 229 224 223 218 215 210 204 203 205 207 208 207 204 205 207 206 203 198 192 179 145 176 186 184 219 160 155 183 176 154 157 155 165 176 193 211 208 207 206 188 193
259 254 250 247 239 231 226 225 221 219 215 210 210 211 212 213 210 210 211 208 205 210 204 199 178 182 145 154 300 275 189 185 172 147 143 142 151 169 177 191 204 202 206 205 188
267 261 253 247 246 241 234 228 225 222 221 220 216 215 215 215 215 214 212 209 206 211 212 210 197 173 156 163 236 227 181 179 164 143 133 129 137 172 192 201 197 202 198 207 199
266 264 259 255 246 243 241 234 229 224 223 223 223 221 218 222 218 215 215 212 207 212 213 208 196 175 177 181 171 212 193 180 162 153 141 142 158 197 207 204 211 204 204 196 206
262 260 258 257 253 247 241 239 235 231 226 223 223 223 223 221 222 217 216 212 208 212 216 215 198 180 192 179 139 229 204 179 160 139 127 160 166 250 262 230 212 208 207 204 182
261 258 255 253 253 252 247 240 237 235 231 228 226 222 222 219 220 220 215 214 209 211 218 222 211 192 181 175 145 263 221 191 157 152 183 282 286 281 274 242 213 210 202 199 187
258 256 255 252 250 250 250 246 240 236 234 232 229 228 223 218 221 223 217 212 211 211 217 219 217 197 186 190 208 212 221 189 205 173 206 240 256 271 275 240 216 209 198 194 194
252 252 251 250 249 248 247 246 243 240 236 232 231 231 225 219 221 222 223 214 214 212 218 221 218 202 193 195 207 225 209 231 242 231 217 246 260 260 264 249 240 210 185 178 178
253 251 247 245 246 245 245 244 244 241 238 236 231 230 224 222 224 221 223 217 216 215 217 222 220 211 203 195 193 242 214 230 238 235 231 230 247 258 240 198 217 210 172 174 175
265 256 252 248 244 242 242 241 241 241 239 237 232 230 224 222 223 220 220 221 216 216 216 223 224 211 201 190 193 218 221 226 238 239 234 230 235 254 239 198 181 173 161 170 175
286 279 263 256 250 245 241 239 238 238 237 237 234 230 226 221 221 221 220 218 218 219 215 223 218 217 214 203 206 220 224 239 246 244 240 238 238 244 227 208 183 183 160 159 168
291 291 288 278 259 251 247 243 237 235 235 237 233 228 228 222 221 221 221 219 219 218 218 224 222 230 224 219 209 216 229 236 238 242 255 248 249 246 221 192 169 170 163 154 168
297 295 286 284 278 266 253 247 242 237 234 231 235 229 227 223 220 222 220 219 219 218 219 224 223 228 226 222 212 215 233 232 236 237 266 241 207 247 228 200 177 174 167 159 166
293 293 291 286 280 275 262 251 246 240 236 232 228 230 227 226 220 221 217 220 219 219 220 220 221 223 221 204 210 211 231 232 230 228 235 236 235 242 229 210 195 183 187 173 174
294 291 284 278 272 271 262 254 251 245 239 232 228 227 226 224 222 219 220 218 218 220 221 219 222 223 208 210 219 219 224 240 238 228 237 222 215 219 234 210 201 188 187 184 171
292 289 287 282 274 261 257 254 250 243 236 233 227 226 223 223 222 220 221 218 217 219 218 215 220 217 212 209 213 214 216 230 242 231 214 226 204 169 204 209 204 188 187 188 171
297 289 281 279 274 271 255 251 247 251 245 232 226 222 220 218 219 220 220 221 214 219 223 220 219 215 206 211 215 210 209 213 234 214 214 224 195 186 190 199 199 191 189 186 181
313 295 280 273 269 268 256 247 245 247 250 248 227 224 221 213 217 218 219 224 219 218 218 217 219 221 219 216 216 208 216 212 229 236 197 236 204 201 191 206 201 200 202 188 186
308 301 280 273 267 264 259 250 250 254 251 250 240 220 216 211 212 213 216 219 217 215 216 222 217 222 214 215 215 218 217 212 219 220 215 211 211 201 208 219 208 213 202 185 184
314 300 284 278 269 258 257 253 255 255 258 250 231 220 213 208 209 209 212 217 218 213 210 216 213 219 216 214 215 211 214 214 222 214 212 206 221 209 208 208 206 201 180 180 186
316 303 285 270 262 257 256 258 260 270 260 237 217 214 211 203 205 206 210 215 215 214 214 217 213 210 216 212 218 221 220 219 210 216 203 204 202 220 209 216 202 189 180 178 179
317 308 297 264 253 256 260 265 268 265 251 230 209 206 209 202 203 206 206 210 213 213 209 211 217 208 214 209 212 219 213 218 219 204 214 192 193 206 191 203 197 188 187 179 182
320 311 298 265 260 262 269 271 268 256 245 233 211 201 203 202 202 204 204 207 210 211 211 214 216 212 216 210 213 213 207 213 215 214 209 206 190 192 186 193 188 191 186 189 188
325 311 301 268 273 270 280 279 260 251 239 232 214 206 200 199 201 202 203 203 207 208 208 212 214 215 212 216 219 220 212 209 212 213 208 208 194 196 193 197 188 192 189 188 188
328 313 297 267 277 280 286 285 263 247 236 228 215 212 200 198 200 202 200 203 205 205 208 210 211 213 212 213 214 218 214 213 216 215 213 201 207 193 193 201 207 189 195 183 188
332 317 299 287 284 284 295 278 264 242 231 226 219 211 207 204 199 201 200 202 204 205 206 207 210 211 211 213 218 217 213 212 215 216 213 208 195 190 199 203 207 218 203 201 188